User: anonymous   Login
Location: Fort Wayne
(41.1310°N, 85.1290°W)
Time: 10:33:04
(UTC-04:00)
Language:

Iridium 37 - Orbit

View from above orbital plane
View from above orbital plane
View from above satellite
View from above satellite

Ground track
Ground track

The orbit data is extracted from the following two-line orbital elements,

1 24968U 97056D   15141.42369906  .00000327  00000-0  10980-3 0  9990
2 24968 086.3954 275.5765 0002244 094.5703 265.5749 14.34215893923926
Epoch (UTC): 21 May 2015 10:10:07
Eccentricity: 0.0002244
inclination: 86.3954°
perigee height: 776 km
apogee height: 779 km
right ascension of ascending node: 275.5765°
argument of perigee: 94.5703°
revolutions per day: 14.34215893
mean anomaly at epoch: 265.5749°
orbit number at epoch: 92392

The dashed part of the orbit path shows where the satellite is in the earth's shadow,  

DLR